Location: ?????????
(54.7630°N, 39.4991°E)
Time: 11:53:20
(UTC+00:00)

Cosmos 1000 Rocket - Pass Details

Date: 14 April 2026
Orbit: 952 x 992 km, 82.9° (Epoch: 10 May)

Event Time Altitude Azimuth Distance (km) Brightness Sun altitude
Rises 18:20:17 0° 349° (NNW) 3,670 8.5 -15.2°
Reaches altitude 10° 18:22:49 10° 350° (N) 2,714 7.6 -15.5°
Maximum altitude 18:29:02 78° 78° (ENE) 984 4.4 -16.1°
Enters shadow 18:33:15 22° 163° (SSE) 1,976 5.6 -16.5°
